{"data":{"norad_id":67750,"intl_designator":"2026-027E","name":"2026-027E","alt_names":[],"object_type":"PAYLOAD","status":"ACTIVE","operator":null,"country":"PRC","launch_date":"2026-02-12","launch_site_code":"SCSLA","launch_vehicle":null,"mission":null,"orbit_class":"UNKNOWN","rcs_meters":null,"size_class":null,"mass_kg":null,"dimensions":null,"purposes":[],"wikipedia_slug":null,"has_3d_model":false,"image_url":null,"decayed_at":null,"tle_current":{"epoch":"2026-05-24T19:03:53.352000Z","epoch_age_seconds":93629,"freshness":"FRESH","line1":"1 67750U 26027E   26144.79436750  .00005175  00000+0  24877-3 0  9998","line2":"2 67750  97.5041 273.2179 0008185 312.6413  47.4131 15.19227510 15410","mean_motion":15.1922751,"eccentricity":0.0008185,"inclination_deg":97.5041,"raan_deg":273.2179,"arg_perigee_deg":312.6413,"mean_anomaly_deg":47.4131,"bstar":0.00024877,"rev_number":1541,"period_min":94.785013470431,"perigee_km":502.53752656681,"apogee_km":513.81041762814,"semimajor_km":6886.3109720975,"source":"CELESTRAK","updated_at":"2026-05-25T13:38:07.231205Z"}}}